When you browse on this site, cookies collect data to enhance your experience and personalize the content and advertising you see.
Visit our Privacy Policy to learn more. By continuing to use the site, you agree to this use of cookies and data.
  • In Hungary
  • List of Countries
  • For 7 days
  • Water Temperature
  • Weather Map
  • News
  • Weather Widgets
  • user-avatar
    Login

    Hourly Weather Bolshaya Vocherma

    Today, 21 October, Monday

    Time Temperature Precipitation Wind Pressure Humidity
    00:00 +5°C° 0 mm 4 mps 753 mmHg 96%
    01:00 +5°C° 0.7 mm 4 mps 753 mmHg 97%
    02:00 +6°C° 0.7 mm 4 mps 753 mmHg 97%
    03:00 +7°C° 0 mm 3 mps 753 mmHg 97%
    04:00 +7°C° 0.4 mm 3 mps 753 mmHg 97%
    05:00 +7°C° 0.4 mm 3 mps 753 mmHg 97%
    06:00 +8°C° 0.4 mm 3 mps 753 mmHg 97%
    07:00 +8°C° 0 mm 3 mps 752 mmHg 97%
    08:00 +9°C° 0 mm 3 mps 752 mmHg 97%
    09:00 +8°C° 0 mm 4 mps 752 mmHg 97%
    10:00 +10°C° 0.3 mm 4 mps 752 mmHg 95%
    11:00 +9°C° 0.3 mm 5 mps 751 mmHg 94%
    12:00 +10°C° 0.3 mm 5 mps 751 mmHg 92%
    13:00 +10°C° 0 mm 5 mps 750 mmHg 91%
    14:00 +10°C° 0 mm 6 mps 750 mmHg 90%
    15:00 +11°C° 0 mm 6 mps 749 mmHg 88%
    16:00 +11°C° 0 mm 7 mps 748 mmHg 88%
    17:00 +11°C° 0 mm 8 mps 747 mmHg 87%
    18:00 +11°C° 0 mm 9 mps 746 mmHg 87%
    19:00 +11°C° 0.4 mm 9 mps 745 mmHg 87%
    20:00 +11°C° 0.4 mm 9 mps 745 mmHg 88%
    21:00 +11°C° 0.4 mm 9 mps 744 mmHg 88%
    22:00 +10°C° 1.2 mm 8 mps 744 mmHg 87%
    23:00 +9°C° 1.2 mm 7 mps 744 mmHg 85%

    Tomorrow, 22 October, Tuesday

    Time Temperature Precipitation Wind Pressure Humidity
    00:00 +8°C° 1.2 mm 5 mps 744 mmHg 84%
    01:00 +7°C° 0 mm 5 mps 745 mmHg 83%
    02:00 +6°C° 0 mm 5 mps 746 mmHg 83%
    03:00 +4°C° 0 mm 6 mps 747 mmHg 82%
    04:00 +5°C° 0 mm 5 mps 747 mmHg 83%
    05:00 +3°C° 0 mm 5 mps 747 mmHg 84%
    06:00 +3°C° 0 mm 5 mps 748 mmHg 85%
    07:00 +3°C° 0 mm 5 mps 748 mmHg 83%
    08:00 +3°C° 0 mm 5 mps 749 mmHg 81%
    09:00 +3°C° 0 mm 5 mps 749 mmHg 78%
    10:00 +3°C° 0 mm 5 mps 749 mmHg 77%
    11:00 +3°C° 0 mm 5 mps 750 mmHg 75%
    12:00 +3°C° 0 mm 5 mps 750 mmHg 74%
    13:00 +3°C° 0 mm 5 mps 750 mmHg 73%
    14:00 +3°C° 0 mm 5 mps 751 mmHg 72%
    15:00 +2°C° 0 mm 5 mps 751 mmHg 71%
    16:00 +3°C° 0 mm 4 mps 751 mmHg 75%
    17:00 +1°C° 0 mm 4 mps 752 mmHg 79%
    18:00 +1°C° 0 mm 3 mps 752 mmHg 82%
    19:00 +1°C° 0 mm 3 mps 752 mmHg 84%
    20:00 +1°C° 0 mm 2 mps 752 mmHg 85%
    21:00 -1°C° 0 mm 2 mps 752 mmHg 87%
    22:00 -1°C° 0 mm 2 mps 752 mmHg 87%
    23:00 -1°C° 0 mm 2 mps 752 mmHg 87%

    Day after tomorrow, 23 October, Wednesday

    Time Temperature Precipitation Wind Pressure Humidity
    00:00 -1°C° 0 mm 2 mps 752 mmHg 88%
    01:00 -1°C° 0 mm 2 mps 751 mmHg 89%
    02:00 -1°C° 0 mm 2 mps 751 mmHg 90%
    03:00 -1°C° 0 mm 3 mps 751 mmHg 91%
    04:00 -1°C° 0 mm 3 mps 751 mmHg 91%
    05:00 -1°C° 0 mm 3 mps 750 mmHg 90%
    06:00 -1°C° 0 mm 4 mps 750 mmHg 90%
    07:00 0°C° 0 mm 4 mps 749 mmHg 88%
    08:00 +1°C° 0 mm 5 mps 748 mmHg 85%
    09:00 +2°C° 0 mm 6 mps 748 mmHg 82%
    10:00 +3°C° 0 mm 6 mps 747 mmHg 82%
    11:00 +4°C° 0 mm 6 mps 746 mmHg 83%
    12:00 +5°C° 0 mm 6 mps 746 mmHg 83%
    13:00 +5°C° 0 mm 6 mps 745 mmHg 85%
    14:00 +5°C° 0 mm 6 mps 745 mmHg 88%
    15:00 +5°C° 0 mm 6 mps 745 mmHg 91%
    16:00 +5°C° 0 mm 6 mps 744 mmHg 91%
    17:00 +7°C° 0 mm 6 mps 744 mmHg 92%
    18:00 +7°C° 0 mm 6 mps 744 mmHg 93%
    19:00 +8°C° 0 mm 6 mps 744 mmHg 93%
    20:00 +8°C° 0 mm 6 mps 744 mmHg 92%
    21:00 +8°C° 0 mm 6 mps 744 mmHg 92%
    22:00 +8°C° 0 mm 6 mps 744 mmHg 90%
    23:00 +8°C° 0 mm 6 mps 744 mmHg 88%

    24 October, Thursday

    Time Temperature Precipitation Wind Pressure Humidity
    00:00 +7°C° 0 mm 5 mps 745 mmHg 86%
    01:00 +7°C° 0 mm 5 mps 745 mmHg 87%
    02:00 +7°C° 0 mm 5 mps 746 mmHg 87%
    03:00 +6°C° 0 mm 5 mps 747 mmHg 87%
    04:00 +6°C° 0 mm 4 mps 747 mmHg 88%
    05:00 +5°C° 0 mm 3 mps 748 mmHg 90%
    06:00 +4°C° 0 mm 3 mps 748 mmHg 91%
    07:00 +4°C° 0 mm 3 mps 749 mmHg 87%
    08:00 +4°C° 0 mm 3 mps 749 mmHg 83%
    09:00 +6°C° 0 mm 2 mps 750 mmHg 80%
    10:00 +6°C° 0 mm 2 mps 750 mmHg 76%
    11:00 +7°C° 0 mm 2 mps 750 mmHg 72%
    12:00 +7°C° 0 mm 3 mps 751 mmHg 69%
    13:00 +7°C° 0 mm 2 mps 751 mmHg 69%
    14:00 +7°C° 0 mm 2 mps 751 mmHg 70%
    15:00 +7°C° 0 mm 2 mps 751 mmHg 71%
    16:00 +6°C° 0 mm 2 mps 751 mmHg 74%
    17:00 +6°C° 0 mm 1 mps 751 mmHg 78%
    18:00 +5°C° 0 mm 1 mps 752 mmHg 81%
    19:00 +5°C° 0 mm 1 mps 752 mmHg 82%
    20:00 +5°C° 0 mm 1 mps 752 mmHg 82%
    21:00 +4°C° 0 mm 2 mps 752 mmHg 83%
    22:00 +4°C° 0 mm 2 mps 752 mmHg 86%
    23:00 +4°C° 0 mm 2 mps 752 mmHg 88%

    25 October, Friday

    Time Temperature Precipitation Wind Pressure Humidity
    00:00 +2°C° 0 mm 3 mps 752 mmHg 91%
    01:00 +2°C° 0 mm 3 mps 752 mmHg 92%
    02:00 +2°C° 0 mm 3 mps 752 mmHg 93%
    03:00 +2°C° 0 mm 3 mps 752 mmHg 94%
    04:00 +2°C° 0 mm 3 mps 751 mmHg 94%
    05:00 +2°C° 0 mm 3 mps 751 mmHg 94%
    06:00 +1°C° 0 mm 4 mps 751 mmHg 95%
    07:00 +3°C° 0 mm 4 mps 751 mmHg 93%
    08:00 +3°C° 0 mm 5 mps 751 mmHg 91%
    09:00 +5°C° 0 mm 5 mps 751 mmHg 89%
    10:00 +5°C° 0 mm 5 mps 751 mmHg 88%
    11:00 +6°C° 0 mm 5 mps 751 mmHg 86%
    12:00 +7°C° 0 mm 6 mps 750 mmHg 85%
    13:00 +7°C° 0 mm 5 mps 751 mmHg 84%
    14:00 +7°C° 0 mm 5 mps 751 mmHg 83%
    15:00 +7°C° 0 mm 5 mps 751 mmHg 82%
    16:00 +7°C° 0 mm 5 mps 751 mmHg 82%
    17:00 +6°C° 0 mm 4 mps 751 mmHg 83%
    18:00 +6°C° 0 mm 4 mps 751 mmHg 84%
    19:00 +6°C° 0 mm 4 mps 751 mmHg 86%
    20:00 +5°C° 0 mm 3 mps 751 mmHg 88%
    21:00 +5°C° 0 mm 3 mps 751 mmHg 91%
    22:00 +5°C° 0 mm 3 mps 751 mmHg 91%
    23:00 +5°C° 0 mm 3 mps 751 mmHg 91%

    26 October, Saturday

    Time Temperature Precipitation Wind Pressure Humidity
    00:00 +4°C° 0 mm 3 mps 751 mmHg 91%
    01:00 +5°C° 0 mm 3 mps 750 mmHg 91%
    02:00 +5°C° 0 mm 3 mps 750 mmHg 92%
    03:00 +5°C° 0 mm 4 mps 750 mmHg 92%
    04:00 +5°C° 0 mm 4 mps 749 mmHg 92%
    05:00 +5°C° 0 mm 5 mps 748 mmHg 92%
    06:00 +4°C° 0 mm 6 mps 748 mmHg 92%
    07:00 +4°C° 0 mm 6 mps 747 mmHg 90%
    08:00 +5°C° 0 mm 7 mps 746 mmHg 88%
    09:00 +5°C° 0 mm 7 mps 745 mmHg 86%
    10:00 +6°C° 0 mm 8 mps 745 mmHg 84%
    11:00 +7°C° 0 mm 8 mps 744 mmHg 81%
    12:00 +7°C° 0 mm 8 mps 743 mmHg 78%
    13:00 +7°C° 0 mm 8 mps 743 mmHg 80%
    14:00 +7°C° 0 mm 8 mps 742 mmHg 81%
    15:00 +7°C° 0 mm 8 mps 742 mmHg 83%
    16:00 +7°C° 0 mm 8 mps 742 mmHg 82%
    17:00 +7°C° 0 mm 8 mps 742 mmHg 82%
    18:00 +7°C° 0 mm 8 mps 742 mmHg 82%
    19:00 +7°C° 0.1 mm 8 mps 743 mmHg 80%
    20:00 +6°C° 0.1 mm 7 mps 743 mmHg 77%
    21:00 +7°C° 0.1 mm 6 mps 743 mmHg 75%
    22:00 +5°C° 0 mm 6 mps 744 mmHg 77%
    23:00 +5°C° 0 mm 6 mps 744 mmHg 79%

    27 October, Sunday

    Time Temperature Precipitation Wind Pressure Humidity
    00:00 +4°C° 0 mm 6 mps 745 mmHg 81%
    01:00 +4°C° 0 mm 6 mps 745 mmHg 83%
    02:00 +3°C° 0 mm 5 mps 746 mmHg 85%
    03:00 +3°C° 0 mm 5 mps 746 mmHg 87%
    04:00 +3°C° 0 mm 5 mps 747 mmHg 89%
    05:00 +3°C° 0 mm 5 mps 747 mmHg 91%
    06:00 +3°C° 0 mm 4 mps 747 mmHg 92%
    07:00 +4°C° 0 mm 4 mps 747 mmHg 91%
    08:00 +4°C° 0 mm 4 mps 748 mmHg 89%
    09:00 +5°C° 0 mm 5 mps 748 mmHg 87%
    10:00 +5°C° 0 mm 4 mps 748 mmHg 84%
    11:00 +6°C° 0 mm 4 mps 748 mmHg 81%
    12:00 +7°C° 0 mm 4 mps 748 mmHg 77%
    13:00 +7°C° 0 mm 4 mps 747 mmHg 77%
    14:00 +7°C° 0 mm 5 mps 746 mmHg 77%
    15:00 +7°C° 0 mm 5 mps 746 mmHg 78%
    16:00 +7°C° 0 mm 5 mps 745 mmHg 80%
    17:00 +7°C° 0 mm 6 mps 745 mmHg 82%
    18:00 +5°C° 0 mm 6 mps 744 mmHg 84%
    19:00 +5°C° 0 mm 6 mps 744 mmHg 85%
    20:00 +5°C° 0 mm 6 mps 743 mmHg 86%
    21:00 +5°C° 0 mm 6 mps 743 mmHg 87%
    22:00 +5°C° 0 mm 6 mps 742 mmHg 88%
    23:00 +5°C° 0 mm 6 mps 742 mmHg 89%
    Show more